Location: Chamerau
(49.1969°N, 12.7525°E)
Time: 06:24:43
(UTC+00:00)

Cosmos 1898 Rocket - Pass Details

Date: 18 September 2020
Orbit: 753 x 784 km, 74.0° (Epoch: 22 October)

Event Time Altitude Azimuth Distance (km) Brightness Sun altitude
Rises 18:24:51 0° 211° (SSW) 3,194 6.9 -12.1°
Reaches altitude 10° 18:27:13 10° 215° (SW) 2,273 6.2 -12.5°
Maximum altitude 18:32:19 64° 296° (WNW) 839 4.0 -13.2°
Drops below altitude 10° 18:37:29 10° 18° (NNE) 2,295 6.0 -14.0°
Sets 18:39:54 0° 22° (NNE) 3,227 6.7 -14.4°
